GW2027 Weather Reports


time (UTC)temp
C
wind
direction
speed
KPH
gust
KPH
rain 1hr
cm
rain 24hr
cm
rain mn
cm
humidity
%
barometer
mb
20260505040110 15 174 0.0 0.0 0.00 0.00 0.00 48 1011.3
20260505035606 15 174 0.0 0.0 0.00 0.00 0.00 48 1011.2
20260505035103 15 174 0.0 0.0 0.00 0.00 0.00 48 1011.5
20260505034559 16 174 0.0 0.0 0.00 0.00 0.00 48 1011.4
20260505034056 16 174 0.0 0.0 0.00 0.00 0.00 48 1011.5
20260505033553 16 173 0.0 0.0 0.00 0.00 0.00 48 1011.4
20260505033051 16 170 0.0 0.0 0.00 0.00 0.00 47 1011.3
20260505032549 16 182 0.0 0.0 0.00 0.00 0.00 47 1011.4
20260505032045 16 180 0.0 0.0 0.00 0.00 0.00 46 1011.3
20260505031542 17 181 0.0 0.0 0.00 0.00 0.00 46 1011.3
20260505031038 17 181 1.6 1.6 0.00 0.00 0.00 45 1011.4
20260505030536 17 169 1.6 1.6 0.00 0.00 0.00 44 1011.2
20260505030032 17 171 0.0 0.0 0.00 0.00 0.00 44 1011.3
20260505025528 17 164 1.6 1.6 0.00 0.00 0.00 43 1011.1
20260505025027 17 184 0.0 1.6 0.00 0.00 0.00 43 1011.3
20260505024523 17 163 0.0 0.0 0.00 0.00 0.00 42 1011.2
20260505024020 18 190 0.0 0.0 0.00 0.00 0.00 41 1011.3
20260505023517 18 171 0.0 0.0 0.00 0.00 0.00 40 1011.4
20260505023015 18 177 0.0 1.6 0.00 0.00 0.00 40 1011.2
20260505022513 18 186 3.2 4.8 0.00 0.00 0.00 40 1011.3
20260505022010 18 174 0.0 0.0 0.00 0.00 0.00 40 1011.3
20260505021506 18 208 0.0 0.0 0.00 0.00 0.00 41 1011.4
20260505021002 18 186 0.0 0.0 0.00 0.00 0.00 41 1011.3
20260505020457 18 168 0.0 0.0 0.00 0.00 0.00 41 1011.1
20260505015954 18 166 0.0 0.0 0.00 0.00 0.00 41 1011.2
20260505015451 18 190 0.0 0.0 0.00 0.00 0.00 42 1011.2
20260505014948 18 188 1.6 1.6 0.00 0.00 0.00 42 1011.0
20260505014445 18 198 0.0 0.0 0.00 0.00 0.00 42 1010.8
20260505013942 18 163 0.0 0.0 0.00 0.00 0.00 42 1010.9
20260505013439 18 165 0.0 0.0 0.00 0.00 0.00 42 1010.9
20260505012937 18 162 0.0 0.0 0.00 0.00 0.00 42 1011.1
20260505012435 18 162 0.0 0.0 0.00 0.00 0.00 41 1011.1
20260505011931 18 160 0.0 0.0 0.00 0.00 0.00 41 1010.9
20260505011427 18 165 0.0 0.0 0.00 0.00 0.00 41 1011.1
20260505010924 18 165 0.0 1.6 0.00 0.00 0.00 41 1011.0
20260505010420 18 163 0.0 0.0 0.00 0.00 0.00 41 1010.9
20260505005916 18 188 0.0 0.0 0.00 0.00 0.00 42 1010.9
20260505005413 18 184 0.0 0.0 0.00 0.00 0.00 42 1010.8
20260505004911 18 184 0.0 0.0 0.00 0.00 0.00 42 1010.7
20260505004407 18 183 0.0 0.0 0.00 0.00 0.00 42 1010.7
20260505003904 18 184 0.0 0.0 0.00 0.00 0.00 42 1010.5
20260505003401 18 184 0.0 0.0 0.00 0.00 0.00 41 1010.5
20260505002857 18 184 0.0 0.0 0.00 0.00 0.00 41 1010.7
20260505002354 18 182 0.0 0.0 0.00 0.00 0.00 40 1010.7
20260505001853 19 194 0.0 0.0 0.00 0.00 0.00 40 1010.8
20260505001349 19 181 1.6 1.6 0.00 0.00 0.00 39 1010.6
20260505000846 19 186 0.0 0.0 0.00 0.00 0.00 38 1010.6
20260505000344 20 158 0.0 1.6 0.00 0.00 0.00 37 1010.7
20260504235840 20 184 0.0 1.6 0.00 0.00 0.00 37 1010.5
20260504235338 20 156 3.2 3.2 0.00 0.00 0.00 36 1010.5
20260504234834 20 160 1.6 3.2 0.00 0.00 0.00 35 1010.9
20260504234332 20 169 1.6 3.2 0.00 0.00 0.00 34 1010.7
20260504233828 20 183 1.6 1.6 0.00 0.00 0.00 34 1010.6
20260504233324 20 143 3.2 3.2 0.00 0.00 0.00 33 1010.6
20260504232821 20 153 0.0 1.6 0.00 0.00 0.00 33 1010.6
20260504232318 20 180 1.6 1.6 0.00 0.00 0.00 32 1010.6
20260504231815 21 121 3.2 4.8 0.00 0.00 0.00 31 1010.8
20260504231311 21 116 3.2 4.8 0.00 0.00 0.00 31 1010.6
20260504230808 21 88 8.0 9.7 0.00 0.00 0.00 30 1010.8
20260504230306 21 116 3.2 3.2 0.00 0.00 0.00 31 1010.8
20260504225804 21 114 6.4 6.4 0.00 0.00 0.00 31 1010.8
20260504225300 21 137 6.4 9.7 0.00 0.00 0.00 32 1010.5
20260504224757 21 150 11.3 17.7 0.00 0.00 0.00 32 1010.7
20260504224255 21 150 6.4 9.7 0.00 0.00 0.00 32 1010.5
20260504223751 21 181 4.8 6.4 0.00 0.00 0.00 32 1010.4
20260504223247 21 82 6.4 11.3 0.00 0.00 0.00 31 1010.6
20260504222744 22 84 8.0 11.3 0.00 0.00 0.00 31 1010.4
20260504222240 22 157 1.6 1.6 0.00 0.00 0.00 30 1010.5
20260504221738 22 139 3.2 3.2 0.00 0.00 0.00 30 1010.3
20260504221235 22 109 3.2 4.8 0.00 0.00 0.00 30 1010.5
20260504220731 22 157 4.8 6.4 0.00 0.00 0.00 31 1010.5
20260504220229 22 175 8.0 11.3 0.00 0.00 0.00 29 1010.5
20260504215726 22 158 11.3 12.9 0.00 0.00 0.00 29 1010.3
20260504215223 22 142 8.0 9.7 0.00 0.00 0.00 29 1010.5
20260504214718 22 116 8.0 11.3 0.00 0.00 0.00 29 1010.5
20260504214215 22 114 11.3 14.5 0.00 0.00 0.00 28 1010.5
20260504213712 22 184 3.2 4.8 0.00 0.00 0.00 28 1010.5
20260504213208 23 46 6.4 6.4 0.00 0.00 0.00 28 1010.5
20260504212705 23 165 4.8 4.8 0.00 0.00 0.00 27 1010.5
20260504212202 23 144 8.0 12.9 0.00 0.00 0.00 27 1010.6
20260504211659 23 131 9.7 12.9 0.00 0.00 0.00 26 1010.5
20260504211155 25 144 1.6 3.2 0.00 0.00 0.00 25 1010.4
20260504210653 25 173 1.6 1.6 0.00 0.00 0.00 22 1010.6
20260504210149 25 224 0.0 0.0 0.00 0.00 0.00 22 1010.5
20260504205647 25 225 3.2 3.2 0.00 0.00 0.00 21 1010.4
20260504205144 25 154 3.2 4.8 0.00 0.00 0.00 20 1010.5
20260504204643 25 211 1.6 3.2 0.00 0.00 0.00 21 1010.7
20260504204141 25 215 3.2 3.2 0.00 0.00 0.00 21 1010.5
20260504203639 25 247 6.4 6.4 0.00 0.00 0.00 21 1010.7
20260504203137 25 239 6.4 6.4 0.00 0.00 0.00 21 1010.8
20260504202637 25 225 3.2 3.2 0.00 0.00 0.00 21 1010.7
20260504202134 24 163 1.6 3.2 0.00 0.00 0.00 23 1010.8
20260504201631 24 175 8.0 9.7 0.00 0.00 0.00 22 1010.8
20260504201129 24 238 6.4 6.4 0.00 0.00 0.00 23 1010.9
20260504200626 24 233 8.0 9.7 0.00 0.00 0.00 23 1011.1
20260504200122 25 163 3.2 4.8 0.00 0.00 0.00 23 1011.0
20260504195618 24 186 1.6 3.2 0.00 0.00 0.00 21 1011.1
20260504195114 25 240 4.8 6.4 0.00 0.00 0.00 23 1011.2
20260504194611 24 186 1.6 3.2 0.00 0.00 0.00 22 1011.3
20260504194107 23 183 1.6 1.6 0.00 0.00 0.00 22 1011.5
20260504193603 24 243 12.9 20.9 0.00 0.00 0.00 21 1011.5
20260504193102 24 266 8.0 9.7 0.00 0.00 0.00 22 1011.6
20260504192600 23 217 1.6 4.8 0.00 0.00 0.00 23 1011.6
20260504192058 23 244 6.4 6.4 0.00 0.00 0.00 23 1011.6
20260504191556 23 279 9.7 11.3 0.00 0.00 0.00 23 1011.8
20260504191051 23 249 12.9 16.1 0.00 0.00 0.00 23 1011.9
20260504190548 23 259 8.0 9.7 0.00 0.00 0.00 22 1011.9
20260504190044 23 270 14.5 16.1 0.00 0.00 0.00 24 1012.0
20260504185541 23 222 1.6 3.2 0.00 0.00 0.00 23 1012.0
20260504185038 23 181 3.2 3.2 0.00 0.00 0.00 22 1012.2
20260504184533 23 221 1.6 4.8 0.00 0.00 0.00 22 1012.4
20260504184029 23 257 6.4 11.3 0.00 0.00 0.00 22 1012.3
20260504183526 23 171 4.8 4.8 0.00 0.00 0.00 21 1012.3
20260504183024 23 264 6.4 11.3 0.00 0.00 0.00 22 1012.5
20260504182520 23 114 1.6 3.2 0.00 0.00 0.00 21 1012.5
20260504182018 23 196 3.2 3.2 0.00 0.00 0.00 21 1012.8
20260504181515 23 193 4.8 6.4 0.00 0.00 0.00 21 1012.4
20260504181014 22 222 4.8 4.8 0.00 0.00 0.00 21 1012.5
20260504180512 22 264 6.4 11.3 0.00 0.00 0.00 23 1012.6
20260504180010 22 251 8.0 9.7 0.00 0.00 0.00 22 1012.6
20260504175507 23 261 12.9 16.1 0.00 0.00 0.00 21 1012.9
20260504175004 22 229 3.2 4.8 0.00 0.00 0.00 21 1013.0
20260504174502 23 253 8.0 12.9 0.00 0.00 0.00 21 1012.9
20260504173959 22 170 1.6 1.6 0.00 0.00 0.00 22 1013.0
20260504173455 23 262 6.4 6.4 0.00 0.00 0.00 21 1013.0
20260504172953 23 193 0.0 1.6 0.00 0.00 0.00 21 1013.2
20260504172448 22 118 1.6 1.6 0.00 0.00 0.00 20 1013.2
20260504171945 22 233 1.6 3.2 0.00 0.00 0.00 21 1013.3
20260504171443 22 243 3.2 4.8 0.00 0.00 0.00 21 1013.4
20260504170939 22 245 11.3 14.5 0.00 0.00 0.00 21 1013.4
20260504170436 22 251 8.0 9.7 0.00 0.00 0.00 22 1013.1
20260504160355 21 246 3.2 4.8 0.00 0.00 0.00 24 1013.9
20260504150820 20 273 6.4 6.4 0.00 0.00 0.00 22 1014.5
20260504150316 20 257 6.4 6.4 0.00 0.00 0.00 23 1014.7
20260504141246 17 243 4.8 4.8 0.00 0.00 0.00 29 1015.2
20260504140742 17 222 0.0 0.0 0.00 0.00 0.00 32 1014.9
20260504140238 17 256 8.0 11.3 0.00 0.00 0.00 32 1015.0
20260504130707 14 251 6.4 6.4 0.00 0.00 0.00 38 1015.1
20260504130203 14 267 8.0 9.7 0.00 0.00 0.00 38 1015.1
20260504120127 12 247 3.2 4.8 0.00 0.00 0.00 43 1015.4
20260504110554 10 218 0.0 0.0 0.00 0.00 0.00 51 1015.7
20260504100516 10 200 0.0 0.0 0.00 0.00 0.00 51 1015.7
20260504081909 10 216 0.0 0.0 0.00 0.00 0.00 48 1016.1
20260504081406 10 219 0.0 0.0 0.00 0.00 0.00 47 1016.3
20260504080902 10 220 0.0 0.0 0.00 0.00 0.00 47 1016.2
20260504080359 10 220 0.0 1.6 0.00 0.00 0.00 46 1015.9
20260504070326 9 216 0.0 0.0 0.00 0.00 0.00 46 1016.3
20260504060247 8 216 0.0 0.0 0.00 0.00 0.00 47 1016.4
20260504050715 7 216 0.0 0.0 0.00 0.00 0.00 47 1016.3
20260504050212 7 216 0.0 0.0 0.00 0.00 0.00 47 1016.2
20260504045709 8 216 0.0 0.0 0.00 0.00 0.00 46 1016.4
20260504045209 8 216 0.0 0.0 0.00 0.00 0.00 46 1016.4
20260504044708 8 216 0.0 0.0 0.00 0.00 0.00 46 1016.4
20260504044204 8 216 0.0 0.0 0.00 0.00 0.00 47 1016.3
20260504043701 7 216 0.0 0.0 0.00 0.00 0.00 47 1016.3
20260504043158 7 216 0.0 0.0 0.00 0.00 0.00 47 1016.3
20260504042655 7 216 0.0 0.0 0.00 0.00 0.00 46 1016.3
20260504042152 7 216 0.0 0.0 0.00 0.00 0.00 46 1016.4
20260504041648 8 216 0.0 0.0 0.00 0.00 0.00 45 1016.3
20260504041144 8 216 0.0 0.0 0.00 0.00 0.00 45 1016.4
20260504040641 8 216 0.0 0.0 0.00 0.00 0.00 45 1016.4
20260504040138 8 216 0.0 0.0 0.00 0.00 0.00 44 1016.3